Temp
17 17 17 18 17 18 17 15 13 13 12 12 12 11 11 11 11 11 10 10 10 10
16 17 18 18 17 16 15 13 13 12 12 11 11 11 11 11 10 10 10 10 10 9
17 17 17 17 16 15 14 13 13 12 11 11 11 10 10 10 10 10 10 10 10 10
16 15 16 15 15 14 13 13 12 12 11 11 10 10 10 10 10 10 10 10 10 9
15 15 14 14 14 13 12 12 12 11 10 10 9 9 9 10 10 10 10 10 10 10
14 14 14 13 13 12 12 11 11 10 9 10 9 9 9 9 10 10 10 10 10 10
11 12 11 11 11 11 10 10 10 8 9 9 8 9 8 9 9 9 9 9 10 10
10 10 10 9 10 10 10 9 9 8 9 9 8 8 9 8 9 9 9 10 10 10
9 10 10 9 9 9 9 10 9 8 8 8 8 8 8 8 9 9 9 9 9 10
8 9 9 9 9 9 9 10 8 9 8 8 8 8 8 8 8 9 9 9 9 9
3 5 6 7 8 8 8 9 8 8 8 8 9 9 8 8 8 8 8 8 9 9
1 2 2 3 3 4 4 7 7 7 8 8 8 8 8 8 8 8 8 8 7 7
-1 -0 1 1 0 -1 -0 1 2 5 5 7 8 8 8 7 7 7 7 8 7 7
-2 -2 -2 -1 -0 -1 -2 -3 -3 -0 2 3 3 6 5 4 5 6 6 6 6 7
Height
1387 1397 1402 1407 1411 1416 1420 1424 1427 1433 1435 1439 1442 1445 1448 1450 1452 1455 1457 1459 1462 1463
1385 1391 1397 1403 1411 1414 1417 1420 1424 1427 1430 1433 1435 1438 1441 1443 1445 1447 1450 1452 1454 1457
1385 1392 1398 1402 1406 1409 1412 1416 1419 1422 1425 1427 1431 1433 1435 1437 1439 1440 1442 1444 1446 1449
1386 1392 1396 1400 1402 1405 1409 1412 1415 1418 1420 1423 1425 1427 1428 1430 1432 1432 1434 1436 1434 1438
1383 1388 1393 1396 1399 1402 1406 1408 1411 1413 1415 1417 1419 1420 1422 1423 1423 1423 1425 1427 1426 1430
1382 1385 1389 1393 1396 1400 1403 1406 1407 1409 1411 1410 1412 1414 1415 1416 1416 1415 1416 1417 1417 1418
1382 1385 1389 1392 1394 1397 1400 1401 1402 1403 1406 1406 1407 1409 1409 1409 1407 1407 1407 1406 1405 1409
1382 1387 1390 1392 1394 1395 1397 1398 1400 1400 1402 1403 1405 1405 1404 1402 1400 1399 1398 1398 1400 1402
1381 1384 1388 1391 1393 1394 1395 1395 1397 1399 1400 1401 1402 1403 1402 1398 1395 1392 1392 1393 1396 1398
1379 1382 1385 1388 1391 1394 1393 1394 1395 1397 1398 1398 1399 1399 1400 1397 1394 1391 1390 1390 1391 1394
1381 1381 1382 1385 1388 1390 1391 1390 1393 1395 1395 1394 1395 1396 1396 1395 1393 1392 1391 1390 1389 1389
1387 1386 1387 1386 1386 1387 1388 1388 1390 1391 1391 1391 1391 1392 1392 1392 1391 1391 1391 1392 1392 1391
1394 1393 1392 1394 1392 1391 1390 1389 1391 1389 1389 1387 1388 1389 1389 1390 1389 1390 1389 1391 1391 1394
1403 1400 1398 1399 1396 1397 1394 1396 1396 1390 1387 1386 1387 1386 1387 1388 1388 1388 1387 1388 1389 1390
Wind_Speed
38 33 36 38 35 31 35 34 41 36 36 35 36 37 36 37 38 39 37 42 40 44
34 34 33 30 28 26 24 23 27 33 34 34 34 33 32 34 37 38 40 43 43 43
26 24 25 25 26 24 19 19 23 22 24 25 28 30 29 34 36 38 39 42 42 44
19 22 24 24 22 21 20 22 22 22 22 23 21 24 29 32 33 38 40 40 44 41
18 20 21 21 20 19 19 18 21 21 22 22 24 25 28 32 39 41 39 41 45 45
19 20 20 20 17 17 18 18 20 21 21 19 21 25 29 33 36 39 41 41 45 49
11 13 15 14 13 13 14 15 14 13 15 15 14 17 24 27 33 38 40 38 48 46
14 10 8 8 7 9 10 8 7 8 9 9 9 10 13 20 24 26 26 36 36 45
14 14 12 9 8 8 9 8 9 10 12 11 10 10 11 12 13 17 26 33 29 33
9 12 13 11 11 12 10 12 12 12 15 15 15 13 13 12 10 10 20 26 31 29
14 5 6 9 12 14 14 13 14 16 17 17 18 18 18 16 13 10 8 16 24 27
22 18 11 4 4 7 8 12 13 13 14 12 13 15 15 13 13 13 11 9 8 14
24 20 19 17 10 9 6 7 6 8 6 8 9 10 9 7 10 13 14 13 14 14
29 27 23 18 16 14 13 13 11 10 9 6 3 3 4 5 7 8 10 10 10 15
Wind_Direction
229 234 231 229 225 231 238 233 224 231 232 236 240 243 247 250 252 249 245 246 247 234
228 223 224 229 234 239 236 238 230 230 233 238 243 247 249 248 247 249 248 244 243 242
232 229 227 231 235 227 222 224 230 231 230 235 240 243 247 249 249 247 246 247 240 241
221 224 232 235 234 224 225 228 232 231 233 243 243 245 248 249 252 247 247 247 233 241
214 224 229 235 228 220 220 228 230 233 245 242 247 250 251 253 257 247 257 251 255 244
215 218 227 216 207 214 226 229 241 251 251 247 251 254 253 255 255 256 255 247 235 234
167 199 191 192 210 227 243 254 251 248 249 248 251 256 256 258 258 256 257 257 237 236
151 169 190 192 197 213 252 229 244 251 218 235 255 262 284 270 267 260 262 254 242 238
142 152 166 188 212 222 218 223 233 227 219 242 253 262 294 311 297 282 249 252 250 254
110 158 176 195 214 222 220 233 233 234 235 240 253 257 274 292 311 320 264 255 247 237
37 61 140 177 193 213 206 213 232 238 236 238 251 258 262 272 274 278 294 230 214 217
39 32 13 108 135 167 168 192 207 221 234 241 256 262 257 256 257 245 237 236 204 182
46 48 44 25 26 80 90 107 144 185 189 224 246 263 263 251 246 238 226 236 233 225
46 48 53 53 45 16 54 61 67 94 110 104 113 231 199 214 230 231 215 212 206 224